Year,Month,Day,Hour,Minute,Value (Times are PST for insolation in W/m^2)
2015,10,31,00,00,0.00
2015,10,31,00,01,0.00
2015,10,31,00,02,0.00
2015,10,31,00,03,0.00
2015,10,31,00,04,0.00
2015,10,31,00,05,0.00
2015,10,31,00,06,0.00
2015,10,31,00,07,0.00
2015,10,31,00,08,0.00
2015,10,31,00,09,0.00
2015,10,31,00,10,0.00
2015,10,31,00,11,0.00
2015,10,31,00,12,0.00
2015,10,31,00,13,0.00
2015,10,31,00,14,0.00
2015,10,31,00,15,0.00
2015,10,31,00,16,0.00
2015,10,31,00,17,0.00
2015,10,31,00,18,0.00
2015,10,31,00,19,0.00
2015,10,31,00,20,0.00
2015,10,31,00,21,0.00
2015,10,31,00,22,0.00
2015,10,31,00,23,0.00
2015,10,31,00,24,0.00
2015,10,31,00,25,0.00
2015,10,31,00,26,0.00
2015,10,31,00,27,0.00
2015,10,31,00,28,0.00
2015,10,31,00,29,0.00
2015,10,31,00,30,0.00
2015,10,31,00,31,0.00
2015,10,31,00,32,0.00
2015,10,31,00,33,0.00
2015,10,31,00,34,0.00
2015,10,31,00,35,0.00
2015,10,31,00,36,0.00
2015,10,31,00,37,0.00
2015,10,31,00,38,0.00
2015,10,31,00,39,0.00
2015,10,31,00,40,0.00
2015,10,31,00,41,0.00
2015,10,31,00,42,0.00
2015,10,31,00,43,0.00
2015,10,31,00,44,0.00
2015,10,31,00,45,0.00
2015,10,31,00,46,0.00
2015,10,31,00,47,0.00
2015,10,31,00,48,0.00
2015,10,31,00,49,0.00
2015,10,31,00,50,0.00
2015,10,31,00,51,0.00
2015,10,31,00,52,0.00
2015,10,31,00,53,0.00
2015,10,31,00,54,0.00
2015,10,31,00,55,0.00
2015,10,31,00,56,0.00
2015,10,31,00,57,0.00
2015,10,31,00,58,0.00
2015,10,31,00,59,0.00
2015,10,31,01,00,0.00
2015,10,31,01,01,0.00
2015,10,31,01,02,0.00
2015,10,31,01,03,0.00
2015,10,31,01,04,0.00
2015,10,31,01,05,0.00
2015,10,31,01,06,0.00
2015,10,31,01,07,0.00
2015,10,31,01,08,0.00
2015,10,31,01,09,0.00
2015,10,31,01,10,0.00
2015,10,31,01,11,0.00
2015,10,31,01,12,0.00
2015,10,31,01,13,0.00
2015,10,31,01,14,0.00
2015,10,31,01,15,0.00
2015,10,31,01,16,0.00
2015,10,31,01,17,0.00
2015,10,31,01,18,0.00
2015,10,31,01,19,0.00
2015,10,31,01,20,0.00
2015,10,31,01,21,0.00
2015,10,31,01,22,0.00
2015,10,31,01,23,0.00
2015,10,31,01,24,0.00
2015,10,31,01,25,0.00
2015,10,31,01,26,0.00
2015,10,31,01,27,0.00
2015,10,31,01,28,0.00
2015,10,31,01,29,0.00
2015,10,31,01,30,0.00
2015,10,31,01,31,0.00
2015,10,31,01,32,0.00
2015,10,31,01,33,0.00
2015,10,31,01,34,0.00
2015,10,31,01,35,0.00
2015,10,31,01,36,0.00
2015,10,31,01,37,0.00
2015,10,31,01,38,0.00
2015,10,31,01,39,0.00
2015,10,31,01,40,0.00
2015,10,31,01,41,0.00
2015,10,31,01,42,0.00
2015,10,31,01,43,0.00
2015,10,31,01,44,0.00
2015,10,31,01,45,0.00
2015,10,31,01,46,0.00
2015,10,31,01,47,0.00
2015,10,31,01,48,0.00
2015,10,31,01,49,0.00
2015,10,31,01,50,0.00
2015,10,31,01,51,0.00
2015,10,31,01,52,0.00
2015,10,31,01,53,0.00
2015,10,31,01,54,0.00
2015,10,31,01,55,0.00
2015,10,31,01,56,0.00
2015,10,31,01,57,0.00
2015,10,31,01,58,0.00
2015,10,31,01,59,0.00
2015,10,31,02,00,0.00
2015,10,31,02,01,0.00
2015,10,31,02,02,0.00
2015,10,31,02,03,0.00
2015,10,31,02,04,0.00
2015,10,31,02,05,0.00
2015,10,31,02,06,0.00
2015,10,31,02,07,0.00
2015,10,31,02,08,0.00
2015,10,31,02,09,0.00
2015,10,31,02,10,0.00
2015,10,31,02,11,0.00
2015,10,31,02,12,0.00
2015,10,31,02,13,0.00
2015,10,31,02,14,0.00
2015,10,31,02,15,0.00
2015,10,31,02,16,0.00
2015,10,31,02,17,0.00
2015,10,31,02,18,0.00
2015,10,31,02,19,0.00
2015,10,31,02,20,0.00
2015,10,31,02,21,0.00
2015,10,31,02,22,0.00
2015,10,31,02,23,0.00
2015,10,31,02,24,0.00
2015,10,31,02,25,0.00
2015,10,31,02,26,0.00
2015,10,31,02,27,0.00
2015,10,31,02,28,0.00
2015,10,31,02,29,0.00
2015,10,31,02,30,0.00
2015,10,31,02,31,0.00
2015,10,31,02,32,0.00
2015,10,31,02,33,0.00
2015,10,31,02,34,0.00
2015,10,31,02,35,0.00
2015,10,31,02,36,0.00
2015,10,31,02,37,0.00
2015,10,31,02,38,0.00
2015,10,31,02,39,0.00
2015,10,31,02,40,0.00
2015,10,31,02,41,0.00
2015,10,31,02,42,0.00
2015,10,31,02,43,0.00
2015,10,31,02,44,0.00
2015,10,31,02,45,0.00
2015,10,31,02,46,0.00
2015,10,31,02,47,0.00
2015,10,31,02,48,0.00
2015,10,31,02,49,0.00
2015,10,31,02,50,0.00
2015,10,31,02,51,0.00
2015,10,31,02,52,0.00
2015,10,31,02,53,0.00
2015,10,31,02,54,0.00
2015,10,31,02,55,0.00
2015,10,31,02,56,0.00
2015,10,31,02,57,0.00
2015,10,31,02,58,0.00
2015,10,31,02,59,0.00
2015,10,31,03,00,0.00
2015,10,31,03,01,0.00
2015,10,31,03,02,0.00
2015,10,31,03,03,0.00
2015,10,31,03,04,0.00
2015,10,31,03,05,0.00
2015,10,31,03,06,0.00
2015,10,31,03,07,0.00
2015,10,31,03,08,0.00
2015,10,31,03,09,0.00
2015,10,31,03,10,0.00
2015,10,31,03,11,0.00
2015,10,31,03,12,0.00
2015,10,31,03,13,0.00
2015,10,31,03,14,0.00
2015,10,31,03,15,0.00
2015,10,31,03,16,0.00
2015,10,31,03,17,0.00
2015,10,31,03,18,0.00
2015,10,31,03,19,0.00
2015,10,31,03,20,0.00
2015,10,31,03,21,0.00
2015,10,31,03,22,0.00
2015,10,31,03,23,0.00
2015,10,31,03,24,0.00
2015,10,31,03,25,0.00
2015,10,31,03,26,0.00
2015,10,31,03,27,0.00
2015,10,31,03,28,0.00
2015,10,31,03,29,0.00
2015,10,31,03,30,0.00
2015,10,31,03,31,0.00
2015,10,31,03,32,0.00
2015,10,31,03,33,0.00
2015,10,31,03,34,0.00
2015,10,31,03,35,0.00
2015,10,31,03,36,0.00
2015,10,31,03,37,0.00
2015,10,31,03,38,0.00
2015,10,31,03,39,0.00
2015,10,31,03,40,0.00
2015,10,31,03,41,0.00
2015,10,31,03,42,0.00
2015,10,31,03,43,0.00
2015,10,31,03,44,0.00
2015,10,31,03,45,0.00
2015,10,31,03,46,0.00
2015,10,31,03,47,0.00
2015,10,31,03,48,0.00
2015,10,31,03,49,0.00
2015,10,31,03,50,0.00
2015,10,31,03,51,0.00
2015,10,31,03,52,0.00
2015,10,31,03,53,0.00
2015,10,31,03,54,0.00
2015,10,31,03,55,0.00
2015,10,31,03,56,0.00
2015,10,31,03,57,0.00
2015,10,31,03,58,0.00
2015,10,31,03,59,0.00
2015,10,31,04,00,0.00
2015,10,31,04,01,0.00
2015,10,31,04,02,0.00
2015,10,31,04,03,0.00
2015,10,31,04,04,0.00
2015,10,31,04,05,0.00
2015,10,31,04,06,0.00
2015,10,31,04,07,0.00
2015,10,31,04,08,0.00
2015,10,31,04,09,0.00
2015,10,31,04,10,0.00
2015,10,31,04,11,0.00
2015,10,31,04,12,0.00
2015,10,31,04,13,0.00
2015,10,31,04,14,0.00
2015,10,31,04,15,0.00
2015,10,31,04,16,0.00
2015,10,31,04,17,0.00
2015,10,31,04,18,0.00
2015,10,31,04,19,0.00
2015,10,31,04,20,0.00
2015,10,31,04,21,0.00
2015,10,31,04,22,0.00
2015,10,31,04,23,0.00
2015,10,31,04,24,0.00
2015,10,31,04,25,0.00
2015,10,31,04,26,0.00
2015,10,31,04,27,0.00
2015,10,31,04,28,0.00
2015,10,31,04,29,0.00
2015,10,31,04,30,0.00
2015,10,31,04,31,0.00
2015,10,31,04,32,0.00
2015,10,31,04,33,0.00
2015,10,31,04,34,0.00
2015,10,31,04,35,0.00
2015,10,31,04,36,0.00
2015,10,31,04,37,0.00
2015,10,31,04,38,0.00
2015,10,31,04,39,0.00
2015,10,31,04,40,0.00
2015,10,31,04,41,0.00
2015,10,31,04,42,0.00
2015,10,31,04,43,0.00
2015,10,31,04,44,0.00
2015,10,31,04,45,0.00
2015,10,31,04,46,0.00
2015,10,31,04,47,0.00
2015,10,31,04,48,0.00
2015,10,31,04,49,0.00
2015,10,31,04,50,0.00
2015,10,31,04,51,0.00
2015,10,31,04,52,0.00
2015,10,31,04,53,0.00
2015,10,31,04,54,0.00
2015,10,31,04,55,0.00
2015,10,31,04,56,0.00
2015,10,31,04,57,0.00
2015,10,31,04,58,0.00
2015,10,31,04,59,0.00
2015,10,31,05,00,0.00
2015,10,31,05,01,0.00
2015,10,31,05,02,0.00
2015,10,31,05,03,0.00
2015,10,31,05,04,0.00
2015,10,31,05,05,0.00
2015,10,31,05,06,0.00
2015,10,31,05,07,0.00
2015,10,31,05,08,0.00
2015,10,31,05,09,0.00
2015,10,31,05,10,0.00
2015,10,31,05,11,0.00
2015,10,31,05,12,0.00
2015,10,31,05,13,0.00
2015,10,31,05,14,0.00
2015,10,31,05,15,0.00
2015,10,31,05,16,0.00
2015,10,31,05,17,0.00
2015,10,31,05,18,0.00
2015,10,31,05,19,0.00
2015,10,31,05,20,0.00
2015,10,31,05,21,0.00
2015,10,31,05,22,0.00
2015,10,31,05,23,0.00
2015,10,31,05,24,0.00
2015,10,31,05,25,0.00
2015,10,31,05,26,0.00
2015,10,31,05,27,0.00
2015,10,31,05,28,0.00
2015,10,31,05,29,0.00
2015,10,31,05,30,0.00
2015,10,31,05,31,0.00
2015,10,31,05,32,0.00
2015,10,31,05,33,0.00
2015,10,31,05,34,0.00
2015,10,31,05,35,0.00
2015,10,31,05,36,0.00
2015,10,31,05,37,0.00
2015,10,31,05,38,0.00
2015,10,31,05,39,0.00
2015,10,31,05,40,0.00
2015,10,31,05,41,0.00
2015,10,31,05,42,0.00
2015,10,31,05,43,0.00
2015,10,31,05,44,0.00
2015,10,31,05,45,0.00
2015,10,31,05,46,0.00
2015,10,31,05,47,0.00
2015,10,31,05,48,0.00
2015,10,31,05,49,0.00
2015,10,31,05,50,0.00
2015,10,31,05,51,0.00
2015,10,31,05,52,0.00
2015,10,31,05,53,0.00
2015,10,31,05,54,0.00
2015,10,31,05,55,0.00
2015,10,31,05,56,0.00
2015,10,31,05,57,0.00
2015,10,31,05,58,0.00
2015,10,31,05,59,0.00
2015,10,31,06,00,0.00
2015,10,31,06,01,0.00
2015,10,31,06,02,0.00
2015,10,31,06,03,0.00
2015,10,31,06,04,0.00
2015,10,31,06,05,0.00
2015,10,31,06,06,0.00
2015,10,31,06,07,0.00
2015,10,31,06,08,0.00
2015,10,31,06,09,0.00
2015,10,31,06,10,0.00
2015,10,31,06,11,0.00
2015,10,31,06,12,0.00
2015,10,31,06,13,0.00
2015,10,31,06,14,0.00
2015,10,31,06,15,0.00
2015,10,31,06,16,0.00
2015,10,31,06,17,0.00
2015,10,31,06,18,0.00
2015,10,31,06,19,0.00
2015,10,31,06,20,0.00
2015,10,31,06,21,0.00
2015,10,31,06,22,0.00
2015,10,31,06,23,0.00
2015,10,31,06,24,0.00
2015,10,31,06,25,0.00
2015,10,31,06,26,0.00
2015,10,31,06,27,0.00
2015,10,31,06,28,0.00
2015,10,31,06,29,0.00
2015,10,31,06,30,0.00
2015,10,31,06,31,0.00
2015,10,31,06,32,0.00
2015,10,31,06,33,0.00
2015,10,31,06,34,0.00
2015,10,31,06,35,0.00
2015,10,31,06,36,0.00
2015,10,31,06,37,0.00
2015,10,31,06,38,0.00
2015,10,31,06,39,0.00
2015,10,31,06,40,0.00
2015,10,31,06,41,0.00
2015,10,31,06,42,0.00
2015,10,31,06,43,0.00
2015,10,31,06,44,0.00
2015,10,31,06,45,0.00
2015,10,31,06,46,0.00
2015,10,31,06,47,0.00
2015,10,31,06,48,0.00
2015,10,31,06,49,0.00
2015,10,31,06,50,0.00
2015,10,31,06,51,0.00
2015,10,31,06,52,0.00
2015,10,31,06,53,0.00
2015,10,31,06,54,0.00
2015,10,31,06,55,0.00
2015,10,31,06,56,0.00
2015,10,31,06,57,0.00
2015,10,31,06,58,0.00
2015,10,31,06,59,0.00
2015,10,31,07,00,0.00
2015,10,31,07,01,0.00
2015,10,31,07,02,0.00
2015,10,31,07,03,0.00
2015,10,31,07,04,0.00
2015,10,31,07,05,0.00
2015,10,31,07,06,0.00
2015,10,31,07,07,0.00
2015,10,31,07,08,0.00
2015,10,31,07,09,0.00
2015,10,31,07,10,0.00
2015,10,31,07,11,0.00
2015,10,31,07,12,0.00
2015,10,31,07,13,0.00
2015,10,31,07,14,0.00
2015,10,31,07,15,0.00
2015,10,31,07,16,0.00
2015,10,31,07,17,0.00
2015,10,31,07,18,0.00
2015,10,31,07,19,0.00
2015,10,31,07,20,0.00
2015,10,31,07,21,0.00
2015,10,31,07,22,0.00
2015,10,31,07,23,0.00
2015,10,31,07,24,0.00
2015,10,31,07,25,0.00
2015,10,31,07,26,0.00
2015,10,31,07,27,0.00
2015,10,31,07,28,0.00
2015,10,31,07,29,0.00
2015,10,31,07,30,0.00
2015,10,31,07,31,0.00
2015,10,31,07,32,0.00
2015,10,31,07,33,0.00
2015,10,31,07,34,0.00
2015,10,31,07,35,0.00
2015,10,31,07,36,0.00
2015,10,31,07,37,0.00
2015,10,31,07,38,0.00
2015,10,31,07,39,0.00
2015,10,31,07,40,0.00
2015,10,31,07,41,0.00
2015,10,31,07,42,0.00
2015,10,31,07,43,0.00
2015,10,31,07,44,0.00
2015,10,31,07,45,0.00
2015,10,31,07,46,0.00
2015,10,31,07,47,0.00
2015,10,31,07,48,0.00
2015,10,31,07,49,0.00
2015,10,31,07,50,0.00
2015,10,31,07,51,0.00
2015,10,31,07,52,0.00
2015,10,31,07,53,0.00
2015,10,31,07,54,0.00
2015,10,31,07,55,0.00
2015,10,31,07,56,0.00
2015,10,31,07,57,0.00
2015,10,31,07,58,0.00
2015,10,31,07,59,0.00
2015,10,31,08,00,0.00
2015,10,31,08,01,0.00
2015,10,31,08,02,0.00
2015,10,31,08,03,0.00
2015,10,31,08,04,0.00
2015,10,31,08,05,0.00
2015,10,31,08,06,0.00
2015,10,31,08,07,0.00
2015,10,31,08,08,0.00
2015,10,31,08,09,0.00
2015,10,31,08,10,0.00
2015,10,31,08,11,0.00
2015,10,31,08,12,0.00
2015,10,31,08,13,0.00
2015,10,31,08,14,0.00
2015,10,31,08,15,0.00
2015,10,31,08,16,0.00
2015,10,31,08,17,0.00
2015,10,31,08,18,0.00
2015,10,31,08,19,0.00
2015,10,31,08,20,0.00
2015,10,31,08,21,0.00
2015,10,31,08,22,0.00
2015,10,31,08,23,0.00
2015,10,31,08,24,0.00
2015,10,31,08,25,0.00
2015,10,31,08,26,0.00
2015,10,31,08,27,0.00
2015,10,31,08,28,0.00
2015,10,31,08,29,0.00
2015,10,31,08,30,0.00
2015,10,31,08,31,0.00
2015,10,31,08,32,0.00
2015,10,31,08,33,0.00
2015,10,31,08,34,0.00
2015,10,31,08,35,0.00
2015,10,31,08,36,0.00
2015,10,31,08,37,0.00
2015,10,31,08,38,0.00
2015,10,31,08,39,0.00
2015,10,31,08,40,0.00
2015,10,31,08,41,0.00
2015,10,31,08,42,0.00
2015,10,31,08,43,0.00
2015,10,31,08,44,0.00
2015,10,31,08,45,0.00
2015,10,31,08,46,0.00
2015,10,31,08,47,0.00
2015,10,31,08,48,0.00
2015,10,31,08,49,0.00
2015,10,31,08,50,0.00
2015,10,31,08,51,0.00
2015,10,31,08,52,0.00
2015,10,31,08,53,0.00
2015,10,31,08,54,0.00
2015,10,31,08,55,0.00
2015,10,31,08,56,3.40
2015,10,31,08,57,6.60
2015,10,31,08,58,10.80
2015,10,31,08,59,15.10
2015,10,31,09,00,21.60
2015,10,31,09,01,24.20
2015,10,31,09,02,27.00
2015,10,31,09,03,28.00
2015,10,31,09,04,25.60
2015,10,31,09,05,23.00
2015,10,31,09,06,19.30
2015,10,31,09,07,21.00
2015,10,31,09,08,18.90
2015,10,31,09,09,14.90
2015,10,31,09,10,12.10
2015,10,31,09,11,9.50
2015,10,31,09,12,8.90
2015,10,31,09,13,7.00
2015,10,31,09,14,7.60
2015,10,31,09,15,9.00
2015,10,31,09,16,10.00
2015,10,31,09,17,13.00
2015,10,31,09,18,10.10
2015,10,31,09,19,10.80
2015,10,31,09,20,12.30
2015,10,31,09,21,15.10
2015,10,31,09,22,18.00
2015,10,31,09,23,18.50
2015,10,31,09,24,19.00
2015,10,31,09,25,20.60
2015,10,31,09,26,18.30
2015,10,31,09,27,17.40
2015,10,31,09,28,14.00
2015,10,31,09,29,14.80
2015,10,31,09,30,17.60
2015,10,31,09,31,24.90
2015,10,31,09,32,31.80
2015,10,31,09,33,38.50
2015,10,31,09,34,40.30
2015,10,31,09,35,42.60
2015,10,31,09,36,44.80
2015,10,31,09,37,45.00
2015,10,31,09,38,41.60
2015,10,31,09,39,41.50
2015,10,31,09,40,45.60
2015,10,31,09,41,41.60
2015,10,31,09,42,38.40
2015,10,31,09,43,37.00
2015,10,31,09,44,37.00
2015,10,31,09,45,37.00
2015,10,31,09,46,37.00
2015,10,31,09,47,38.80
2015,10,31,09,48,40.00
2015,10,31,09,49,40.60
2015,10,31,09,50,41.20
2015,10,31,09,51,41.00
2015,10,31,09,52,42.00
2015,10,31,09,53,40.50
2015,10,31,09,54,41.80
2015,10,31,09,55,42.30
2015,10,31,09,56,44.50
2015,10,31,09,57,46.40
2015,10,31,09,58,49.00
2015,10,31,09,59,51.00
2015,10,31,10,00,49.40
2015,10,31,10,01,47.20
2015,10,31,10,02,45.40
2015,10,31,10,03,41.10
2015,10,31,10,04,38.20
2015,10,31,10,05,37.00
2015,10,31,10,06,37.00
2015,10,31,10,07,35.50
2015,10,31,10,08,35.00
2015,10,31,10,09,35.00
2015,10,31,10,10,35.50
2015,10,31,10,11,38.20
2015,10,31,10,12,42.00
2015,10,31,10,13,45.30
2015,10,31,10,14,46.00
2015,10,31,10,15,46.00
2015,10,31,10,16,46.00
2015,10,31,10,17,46.30
2015,10,31,10,18,48.60
2015,10,31,10,19,51.00
2015,10,31,10,20,54.30
2015,10,31,10,21,57.50
2015,10,31,10,22,59.80
2015,10,31,10,23,59.50
2015,10,31,10,24,55.20
2015,10,31,10,25,51.40
2015,10,31,10,26,49.00
2015,10,31,10,27,50.30
2015,10,31,10,28,52.60
2015,10,31,10,29,53.00
2015,10,31,10,30,53.00
2015,10,31,10,31,53.80
2015,10,31,10,32,57.60
2015,10,31,10,33,61.10
2015,10,31,10,34,60.70
2015,10,31,10,35,56.80
2015,10,31,10,36,54.20
2015,10,31,10,37,54.00
2015,10,31,10,38,54.60
2015,10,31,10,39,56.80
2015,10,31,10,40,59.10
2015,10,31,10,41,58.70
2015,10,31,10,42,58.00
2015,10,31,10,43,56.20
2015,10,31,10,44,54.00
2015,10,31,10,45,53.70
2015,10,31,10,46,53.00
2015,10,31,10,47,53.00
2015,10,31,10,48,53.00
2015,10,31,10,49,53.80
2015,10,31,10,50,54.00
2015,10,31,10,51,53.00
2015,10,31,10,52,52.40
2015,10,31,10,53,51.00
2015,10,31,10,54,49.90
2015,10,31,10,55,49.00
2015,10,31,10,56,50.50
2015,10,31,10,57,51.10
2015,10,31,10,58,53.50
2015,10,31,10,59,56.50
2015,10,31,11,00,59.60
2015,10,31,11,01,62.00
2015,10,31,11,02,62.70
2015,10,31,11,03,64.60
2015,10,31,11,04,66.80
2015,10,31,11,05,67.00
2015,10,31,11,06,67.60
2015,10,31,11,07,69.40
2015,10,31,11,08,72.10
2015,10,31,11,09,72.70
2015,10,31,11,10,79.00
2015,10,31,11,11,82.80
2015,10,31,11,12,84.30
2015,10,31,11,13,86.50
2015,10,31,11,14,88.00
2015,10,31,11,15,89.10
2015,10,31,11,16,92.00
2015,10,31,11,17,96.10
2015,10,31,11,18,97.90
2015,10,31,11,19,98.00
2015,10,31,11,20,97.70
2015,10,31,11,21,95.40
2015,10,31,11,22,92.00
2015,10,31,11,23,90.30
2015,10,31,11,24,88.40
2015,10,31,11,25,86.20
2015,10,31,11,26,86.00
2015,10,31,11,27,87.00
2015,10,31,11,28,92.00
2015,10,31,11,29,96.60
2015,10,31,11,30,98.00
2015,10,31,11,31,98.00
2015,10,31,11,32,96.90
2015,10,31,11,33,92.70
2015,10,31,11,34,90.70
2015,10,31,11,35,88.40
2015,10,31,11,36,84.90
2015,10,31,11,37,85.40
2015,10,31,11,38,87.50
2015,10,31,11,39,90.90
2015,10,31,11,40,95.50
2015,10,31,11,41,98.60
2015,10,31,11,42,100.00
2015,10,31,11,43,100.00
2015,10,31,11,44,98.60
2015,10,31,11,45,97.20
2015,10,31,11,46,95.20
2015,10,31,11,47,97.40
2015,10,31,11,48,101.00
2015,10,31,11,49,105.20
2015,10,31,11,50,110.00
2015,10,31,11,51,116.20
2015,10,31,11,52,120.20
2015,10,31,11,53,124.60
2015,10,31,11,54,128.60
2015,10,31,11,55,132.80
2015,10,31,11,56,137.80
2015,10,31,11,57,145.10
2015,10,31,11,58,151.20
2015,10,31,11,59,154.60
2015,10,31,12,00,155.90
2015,10,31,12,01,160.30
2015,10,31,12,02,162.00
2015,10,31,12,03,160.40
2015,10,31,12,04,156.60
2015,10,31,12,05,152.30
2015,10,31,12,06,148.60
2015,10,31,12,07,148.00
2015,10,31,12,08,148.00
2015,10,31,12,09,148.00
2015,10,31,12,10,148.00
2015,10,31,12,11,147.00
2015,10,31,12,12,142.70
2015,10,31,12,13,137.90
2015,10,31,12,14,135.30
2015,10,31,12,15,136.60
2015,10,31,12,16,132.80
2015,10,31,12,17,129.20
2015,10,31,12,18,126.30
2015,10,31,12,19,122.40
2015,10,31,12,20,118.60
2015,10,31,12,21,114.30
2015,10,31,12,22,112.70
2015,10,31,12,23,111.00
2015,10,31,12,24,111.80
2015,10,31,12,25,113.60
2015,10,31,12,26,113.30
2015,10,31,12,27,108.10
2015,10,31,12,28,102.30
2015,10,31,12,29,98.00
2015,10,31,12,30,98.00
2015,10,31,12,31,98.90
2015,10,31,12,32,101.10
2015,10,31,12,33,103.30
2015,10,31,12,34,104.00
2015,10,31,12,35,102.10
2015,10,31,12,36,99.60
2015,10,31,12,37,95.80
2015,10,31,12,38,91.80
2015,10,31,12,39,87.80
2015,10,31,12,40,84.10
2015,10,31,12,41,81.40
2015,10,31,12,42,77.20
2015,10,31,12,43,77.00
2015,10,31,12,44,77.60
2015,10,31,12,45,80.70
2015,10,31,12,46,84.50
2015,10,31,12,47,88.40
2015,10,31,12,48,93.80
2015,10,31,12,49,99.50
2015,10,31,12,50,105.90
2015,10,31,12,51,111.80
2015,10,31,12,52,114.00
2015,10,31,12,53,113.50
2015,10,31,12,54,110.40
2015,10,31,12,55,106.10
2015,10,31,12,56,102.40
2015,10,31,12,57,102.30
2015,10,31,12,58,105.20
2015,10,31,12,59,111.00
2015,10,31,13,00,117.10
2015,10,31,13,01,122.00
2015,10,31,13,02,125.90
2015,10,31,13,03,127.90
2015,10,31,13,04,130.50
2015,10,31,13,05,134.30
2015,10,31,13,06,134.60
2015,10,31,13,07,130.90
2015,10,31,13,08,126.10
2015,10,31,13,09,122.00
2015,10,31,13,10,120.10
2015,10,31,13,11,121.60
2015,10,31,13,12,125.90
2015,10,31,13,13,131.10
2015,10,31,13,14,140.50
2015,10,31,13,15,146.60
2015,10,31,13,16,148.00
2015,10,31,13,17,146.20
2015,10,31,13,18,142.20
2015,10,31,13,19,146.20
2015,10,31,13,20,157.30
2015,10,31,13,21,167.70
2015,10,31,13,22,174.60
2015,10,31,13,23,176.00
2015,10,31,13,24,191.20
2015,10,31,13,25,192.90
2015,10,31,13,26,191.50
2015,10,31,13,27,192.00
2015,10,31,13,28,203.00
2015,10,31,13,29,222.40
2015,10,31,13,30,230.00
2015,10,31,13,31,496.40
2015,10,31,13,32,524.00
2015,10,31,13,33,488.20
2015,10,31,13,34,357.40
2015,10,31,13,35,322.00
2015,10,31,13,36,234.90
2015,10,31,13,37,188.00
2015,10,31,13,38,406.60
2015,10,31,13,39,345.00
2015,10,31,13,40,361.20
2015,10,31,13,41,410.00
2015,10,31,13,42,373.10
2015,10,31,13,43,341.70
2015,10,31,13,44,392.80
2015,10,31,13,45,468.50
2015,10,31,13,46,453.20
2015,10,31,13,47,330.60
2015,10,31,13,48,331.20
2015,10,31,13,49,361.40
2015,10,31,13,50,341.90
2015,10,31,13,51,304.80
2015,10,31,13,52,302.40
2015,10,31,13,53,274.10
2015,10,31,13,54,264.00
2015,10,31,13,55,259.70
2015,10,31,13,56,259.30
2015,10,31,13,57,272.20
2015,10,31,13,58,290.90
2015,10,31,13,59,275.90
2015,10,31,14,00,274.40
2015,10,31,14,01,261.50
2015,10,31,14,02,250.60
2015,10,31,14,03,247.90
2015,10,31,14,04,235.60
2015,10,31,14,05,229.20
2015,10,31,14,06,222.10
2015,10,31,14,07,229.00
2015,10,31,14,08,228.00
2015,10,31,14,09,225.80
2015,10,31,14,10,227.00
2015,10,31,14,11,222.40
2015,10,31,14,12,218.40
2015,10,31,14,13,206.70
2015,10,31,14,14,196.20
2015,10,31,14,15,191.50
2015,10,31,14,16,201.00
2015,10,31,14,17,230.00
2015,10,31,14,18,220.10
2015,10,31,14,19,197.80
2015,10,31,14,20,190.20
2015,10,31,14,21,190.00
2015,10,31,14,22,191.20
2015,10,31,14,23,192.90
2015,10,31,14,24,188.90
2015,10,31,14,25,185.90
2015,10,31,14,26,179.80
2015,10,31,14,27,174.40
2015,10,31,14,28,174.00
2015,10,31,14,29,173.50
2015,10,31,14,30,170.80
2015,10,31,14,31,169.00
2015,10,31,14,32,166.40
2015,10,31,14,33,165.00
2015,10,31,14,34,166.90
2015,10,31,14,35,168.70
2015,10,31,14,36,167.00
2015,10,31,14,37,166.10
2015,10,31,14,38,165.00
2015,10,31,14,39,165.00
2015,10,31,14,40,166.60
2015,10,31,14,41,168.80
2015,10,31,14,42,168.70
2015,10,31,14,43,166.00
2015,10,31,14,44,162.60
2015,10,31,14,45,158.50
2015,10,31,14,46,151.10
2015,10,31,14,47,145.10
2015,10,31,14,48,137.40
2015,10,31,14,49,131.20
2015,10,31,14,50,126.00
2015,10,31,14,51,121.00
2015,10,31,14,52,115.40
2015,10,31,14,53,107.80
2015,10,31,14,54,98.70
2015,10,31,14,55,91.50
2015,10,31,14,56,87.70
2015,10,31,14,57,85.50
2015,10,31,14,58,84.00
2015,10,31,14,59,83.40
2015,10,31,15,00,81.70
2015,10,31,15,01,81.00
2015,10,31,15,02,82.80
2015,10,31,15,03,80.50
2015,10,31,15,04,76.20
2015,10,31,15,05,72.00
2015,10,31,15,06,67.00
2015,10,31,15,07,63.70
2015,10,31,15,08,62.20
2015,10,31,15,09,60.20
2015,10,31,15,10,64.30
2015,10,31,15,11,75.80
2015,10,31,15,12,93.20
2015,10,31,15,13,111.60
2015,10,31,15,14,124.20
2015,10,31,15,15,148.00
2015,10,31,15,16,173.90
2015,10,31,15,17,178.90
2015,10,31,15,18,178.20
2015,10,31,15,19,182.60
2015,10,31,15,20,182.00
2015,10,31,15,21,171.40
2015,10,31,15,22,167.50
2015,10,31,15,23,170.60
2015,10,31,15,24,170.10
2015,10,31,15,25,176.50
2015,10,31,15,26,174.40
2015,10,31,15,27,166.00
2015,10,31,15,28,168.20
2015,10,31,15,29,176.20
2015,10,31,15,30,195.10
2015,10,31,15,31,151.00
2015,10,31,15,32,146.80
2015,10,31,15,33,133.20
2015,10,31,15,34,129.50
2015,10,31,15,35,116.60
2015,10,31,15,36,106.50
2015,10,31,15,37,105.00
2015,10,31,15,38,88.60
2015,10,31,15,39,74.20
2015,10,31,15,40,68.20
2015,10,31,15,41,73.30
2015,10,31,15,42,82.20
2015,10,31,15,43,85.60
2015,10,31,15,44,89.10
2015,10,31,15,45,82.60
2015,10,31,15,46,73.00
2015,10,31,15,47,72.30
2015,10,31,15,48,88.00
2015,10,31,15,49,123.40
2015,10,31,15,50,167.80
2015,10,31,15,51,174.20
2015,10,31,15,52,246.50
2015,10,31,15,53,250.80
2015,10,31,15,54,255.00
2015,10,31,15,55,259.00
2015,10,31,15,56,255.30
2015,10,31,15,57,237.80
2015,10,31,15,58,155.70
2015,10,31,15,59,113.80
2015,10,31,16,00,80.50
2015,10,31,16,01,63.00
2015,10,31,16,02,60.00
2015,10,31,16,03,61.30
2015,10,31,16,04,62.00
2015,10,31,16,05,64.90
2015,10,31,16,06,64.20
2015,10,31,16,07,60.00
2015,10,31,16,08,62.00
2015,10,31,16,09,94.00
2015,10,31,16,10,166.60
2015,10,31,16,11,199.30
2015,10,31,16,12,145.80
2015,10,31,16,13,154.10
2015,10,31,16,14,120.10
2015,10,31,16,15,132.00
2015,10,31,16,16,153.00
2015,10,31,16,17,151.70
2015,10,31,16,18,144.20
2015,10,31,16,19,135.70
2015,10,31,16,20,68.90
2015,10,31,16,21,39.80
2015,10,31,16,22,41.00
2015,10,31,16,23,54.50
2015,10,31,16,24,79.00
2015,10,31,16,25,83.60
2015,10,31,16,26,87.50
2015,10,31,16,27,75.50
2015,10,31,16,28,91.50
2015,10,31,16,29,118.70
2015,10,31,16,30,145.00
2015,10,31,16,31,169.70
2015,10,31,16,32,176.00
2015,10,31,16,33,59.90
2015,10,31,16,34,38.70
2015,10,31,16,35,37.00
2015,10,31,16,36,38.20
2015,10,31,16,37,58.00
2015,10,31,16,38,116.70
2015,10,31,16,39,152.50
2015,10,31,16,40,164.60
2015,10,31,16,41,162.00
2015,10,31,16,42,152.70
2015,10,31,16,43,137.10
2015,10,31,16,44,128.40
2015,10,31,16,45,125.70
2015,10,31,16,46,121.90
2015,10,31,16,47,120.10
2015,10,31,16,48,115.70
2015,10,31,16,49,113.10
2015,10,31,16,50,110.20
2015,10,31,16,51,109.00
2015,10,31,16,52,107.70
2015,10,31,16,53,107.00
2015,10,31,16,54,105.20
2015,10,31,16,55,101.50
2015,10,31,16,56,97.70
2015,10,31,16,57,96.20
2015,10,31,16,58,92.20
2015,10,31,16,59,87.40
2015,10,31,17,00,83.80
2015,10,31,17,01,79.20
2015,10,31,17,02,78.70
2015,10,31,17,03,76.80
2015,10,31,17,04,76.00
2015,10,31,17,05,75.00
2015,10,31,17,06,72.70
2015,10,31,17,07,69.70
2015,10,31,17,08,65.40
2015,10,31,17,09,62.90
2015,10,31,17,10,61.40
2015,10,31,17,11,59.20
2015,10,31,17,12,55.80
2015,10,31,17,13,53.30
2015,10,31,17,14,51.50
2015,10,31,17,15,49.20
2015,10,31,17,16,46.80
2015,10,31,17,17,45.50
2015,10,31,17,18,43.20
2015,10,31,17,19,42.00
2015,10,31,17,20,40.70
2015,10,31,17,21,37.80
2015,10,31,17,22,33.40
2015,10,31,17,23,31.70
2015,10,31,17,24,29.50
2015,10,31,17,25,27.20
2015,10,31,17,26,26.00
2015,10,31,17,27,25.40
2015,10,31,17,28,25.00
2015,10,31,17,29,23.20
2015,10,31,17,30,22.70
2015,10,31,17,31,21.00
2015,10,31,17,32,20.20